Skip Page Navigation
NASA JPL Caltech
NASA Logo - Jet Propulsion Laboratory + View the NASA Portal
+ Center for Near-Earth Object Studies
JPL Home Earth Solar System Stars & Galaxies Technology
JPL Solar System Dynamics
BODIES ORBITS EPHEMERIDES TOOLS PHYSICAL DATA DISCOVERY FAQ SITE MAP
JPL Small-Body Database Browser
Search: [ help ]  
469491 (2002 VL63)
Classification: Main-belt Asteroid          SPK-ID: 2469491
Ephemeris | Orbit Diagram | Orbital Elements | Mission Design | Physical Parameters | Discovery Circumstances ]

[ show orbit diagram ]
Orbital Elements at Epoch 2459000.5 (2020-May-31.0) TDB
Reference: JPL 9 (heliocentric ecliptic J2000)
 Element Value Uncertainty (1-sigma)   Units 
e .2401127733766967 1.4456e-07  
a 2.80678049755247 2.5263e-08 au
q 2.132836648025522 4.1041e-07 au
i 11.70411645762496 1.1758e-05 deg
node 259.4462509267073 5.927e-05 deg
peri 107.6096690666633 6.2474e-05 deg
M 294.0631759901038 1.919e-05 deg
tp 2459315.083996935058
(2021-Apr-10.58399693)
9.3148e-05 TDB
period 1717.556776462629
4.70
2.3189e-05
6.349e-08
d
yr
n .2096000580204593 2.8299e-09 deg/d
Q 3.480724347079418 3.133e-08 au
  Orbit Determination Parameters
   # obs. used (total)      192  
   data-arc span      6015 days (16.47 yr)  
   first obs. used      2002-11-06  
   last obs. used      2019-04-26  
   planetary ephem.      DE431  
   SB-pert. ephem.      SB431-N16  
   condition code      0  
   norm. resid. RMS      .57173  
   source      ORB  
   producer      Otto Matic  
   solution date      2020-Feb-26 13:57:59  

Additional Information
 Earth MOID = 1.16706 au 
 Jupiter MOID = 2.18305 au 
 T_jup = 3.250 
[ show covariance matrix ]

Ephemeris | Orbit Diagram | Orbital Elements | Mission Design | Physical Parameters | Discovery Circumstances ]

Physical Parameter Table
Parameter Symbol Value Units Sigma Reference Notes
absolute magnitude H 16.0   n/a MPO434688  

469491 (2002 VL63)          Discovered 2002-Nov-06 by LONEOS at Anderson Mesa
Reference: Last Updated: 2016-08-22

Alternate Designations
 2002 VL63 = 2011 QG33 
Ephemeris | Orbit Diagram | Orbital Elements | Mission Design | Physical Parameters | Discovery Circumstances ]
ABOUT SSD CREDITS/AWARDS PRIVACY/COPYRIGHT GLOSSARY LINKS
FirstGov 2020-Aug-12 12:36 UT
(server date/time)  
NASA Home Page
Site Manager:   Ryan S. Park
Webmaster  Alan B. Chamberlin